This is the latest recevied weather packets stored in our database for station/object N8QF. If no packets are shown the sender has not sent any weather packets the latest 10 day(s).
| Time | Temp. | Humidity | Pressure | Rain* | Wind** | Luminosity | Snow |
|---|---|---|---|---|---|---|---|
| 1778106580 | 13.89° C | 55% | 1012.8 hPa | 11.94 mm | - | - | - |
| 1778106274 | 13.89° C | 54% | 1012.9 hPa | 11.94 mm | - | - | - |
| 1778105974 | 13.89° C | 52% | 1012.9 hPa | 11.94 mm | - | - | - |
| 1778105673 | 13.89° C | 55% | 1012.9 hPa | 11.94 mm | - | - | - |
| 1778105373 | 13.89° C | 51% | 1013 hPa | 11.94 mm | - | - | - |
| 1778105074 | 13.89° C | 51% | 1013 hPa | 11.94 mm | - | - | - |
| 1778104773 | 14.44° C | 52% | 1013 hPa | 11.94 mm | - | - | - |
| 1778104472 | 14.44° C | 51% | 1013 hPa | 11.94 mm | - | - | - |
| 1778104172 | 14.44° C | 54% | 1012.9 hPa | 11.94 mm | - | - | - |
| 1778103869 | 14.44° C | 53% | 1012.8 hPa | 11.94 mm | - | - | - |
| 1778103568 | 14.44° C | 52% | 1012.9 hPa | 11.94 mm | - | - | - |
| 1778103268 | 14.44° C | 52% | 1012.8 hPa | 11.94 mm | - | - | - |
| 1778102967 | 14.44° C | 53% | 1012.8 hPa | 11.94 mm | - | - | - |
| 1778102667 | 14.44° C | 50% | 1012.5 hPa | 11.94 mm | - | - | - |
| 1778102366 | 14.44° C | 50% | 1012.4 hPa | 11.94 mm | - | - | - |
| 1778102066 | 14.44° C | 49% | 1012.4 hPa | 11.94 mm | - | - | - |
| 1778101765 | 14.44° C | 52% | 1012.4 hPa | 11.94 mm | - | - | - |
| 1778101465 | 13.89° C | 51% | 1012.3 hPa | 11.94 mm | - | - | - |
| 1778101164 | 13.89° C | 54% | 1012.3 hPa | 11.94 mm | - | - | - |
| 1778100864 | 13.89° C | 51% | 1012.4 hPa | 11.94 mm | - | - | - |
| 1778100564 | 13.89° C | 53% | 1012.2 hPa | 11.94 mm | - | - | - |
| 1778100262 | 13.89° C | 54% | 1012.4 hPa | 11.94 mm | - | - | - |
| 1778099962 | 13.89° C | 50% | 1012.4 hPa | 11.94 mm | - | - | - |
| 1778099662 | 13.89° C | 53% | 1012.4 hPa | 11.94 mm | - | - | - |
| 1778099361 | 13.89° C | 52% | 1012.4 hPa | 11.94 mm | - | - | - |
* Rain since midnight (hover to see other rain measurements)
** Current wind speed in m/s (hover to see current wind gust speed)